Weather History for Berlin Tegel, Germany

Change the Weather History Date:

Saturday, December 21, 2013

  Actual Average Record
Temperature  
Mean Temperature 39 °F -  
Max Temperature 44 °F 37 °F 48 °F (2003)
Min Temperature 34 °F 28 °F 12 °F (2010)
Degree Days  
Heating Degree Days 26    
Moisture  
Dew Point 31 °F    
Average Humidity 69    
Maximum Humidity 93    
Minimum Humidity 45    
Precipitation  
Precipitation 0.00 in - - ()
Sea Level Pressure  
Sea Level Pressure 30.29 in    
Wind  
Wind Speed 10 mph ()    
Max Wind Speed 16 mph    
Max Gust Speed -    
Visibility 19.0 miles    
Events Rain    
Averages and records for this station are not official NWS values.
T = Trace of Precipitation, MM = Missing Value Source: Averaged Metar Reports

Daily Weather History Graph

Daily Weather History Graph

Search for Another Location

Airport:

Trip Planner

Search our weather history database for the weather conditions in past years. The results will help you decide how hot, cold, wet, or windy it might be!

Date:

Astronomy

Dec. 21, 2013 Rise Set
Actual Time 8:15 AM CET 3:54 PM CET
Civil Twilight 7:33 AM CET 4:35 PM CET
Nautical Twilight 6:49 AM CET 5:20 PM CET
Astronomical Twilight 6:07 AM CET 6:02 PM CET
Moon 8:23 PM CET (12/21) 10:06 AM CET (12/21)
Length of Visible Light 9h 02m
Length of Day
7h 38m
Waning Gibbous, 86% of the Moon is Illuminated
Dec 21
Waning Gibbous
Dec 25
Last Quarter
Jan 1
New
Jan 8
First Quarter
Jan 16
Full

Hourly Weather History & Observations

Time (CET) Temp. Windchill Dew Point Humidity Pressure Visibility Wind Dir Wind Speed Gust Speed Precip Events Conditions
12:00 AM 38 °F - 33 °F 76% 30.35 in 22 mi SW 8.9 mph - -   Scattered Clouds
12:20 AM 37.4 °F 31.4 °F 32.0 °F 81% 30.33 in - SW 8.1 mph - N/A   Clear
12:50 AM 37.4 °F 30.8 °F 32.0 °F 81% 30.36 in - SW 9.2 mph - N/A   Clear
1:00 AM 37 °F - 33 °F 78% 30.37 in 22 mi SW 8.9 mph - -   Clear
1:20 AM 35.6 °F 29.9 °F 32.0 °F 87% 30.36 in - South 6.9 mph - N/A   Clear
1:50 AM 35.6 °F 30.7 °F 32.0 °F 87% 30.36 in - SSW 5.8 mph - N/A   Clear
2:00 AM 35 °F - 32 °F 83% 30.37 in 22 mi SSW 6.7 mph - -  
2:20 AM 35.6 °F 30.7 °F 32.0 °F 87% 30.36 in - South 5.8 mph - N/A   Clear
2:50 AM 35.6 °F 29.9 °F 32.0 °F 87% 30.36 in - South 6.9 mph - N/A   Clear
3:00 AM 35 °F - 32 °F 86% 30.37 in 22 mi South 6.7 mph - -  
3:20 AM 35.6 °F 29.9 °F 32.0 °F 87% 30.36 in - SSW 6.9 mph - N/A   Clear
3:50 AM 35.6 °F 29.9 °F 32.0 °F 87% 30.36 in - SSW 6.9 mph - N/A   Clear
4:00 AM 35 °F - 32 °F 85% 30.38 in 22 mi SSW 6.7 mph - -  
4:20 AM 35.6 °F 29.2 °F 32.0 °F 87% 30.36 in - SSW 8.1 mph - N/A   Clear
4:50 AM 35.6 °F 28.0 °F 33.8 °F 93% 30.36 in - SSW 10.4 mph - N/A   Clear
5:00 AM 36 °F - 33 °F 85% 30.37 in 19 mi SSW 8.9 mph - -  
5:20 AM 35.6 °F 28.6 °F 33.8 °F 93% 30.36 in - SSW 9.2 mph - N/A   Clear
5:50 AM 35.6 °F 29.2 °F 32.0 °F 87% 30.36 in - SSW 8.1 mph - N/A   Clear
6:00 AM 36 °F - 33 °F 83% 30.37 in 19 mi SSW 8.9 mph - -   Scattered Clouds
6:20 AM 35.6 °F 27.5 °F 32.0 °F 87% 30.36 in - SSW 11.5 mph - N/A   Clear
6:50 AM 37.4 °F 29.8 °F 33.8 °F 87% 30.33 in - SSW 11.5 mph - N/A   Clear
7:00 AM 37 °F - 33 °F 79% 30.36 in 19 mi SSW 11.2 mph - -   Partly Cloudy
7:20 AM 37.4 °F 29.3 °F 33.8 °F 87% 30.33 in - SSW 12.7 mph - N/A   Clear
7:50 AM 37.4 °F 29.8 °F 32.0 °F 81% 30.33 in - SSW 11.5 mph - N/A   Clear
8:00 AM 38 °F - 33 °F 74% 30.35 in 19 mi SSW 11.2 mph - -   Partly Cloudy
8:20 AM 37.4 °F 29.8 °F 32.0 °F 81% 30.33 in - SSW 11.5 mph - N/A   Clear
8:50 AM 37.4 °F 29.8 °F 32.0 °F 81% 30.33 in - SSW 11.5 mph - N/A   Clear
9:00 AM 37 °F - 32 °F 76% 30.34 in 19 mi SSW 11.2 mph - -   Scattered Clouds
9:20 AM 37.4 °F 29.3 °F 32.0 °F 81% 30.33 in - SSW 12.7 mph - N/A   Clear
9:50 AM 39.2 °F 32.5 °F 32.0 °F 75% 30.33 in - SSW 10.4 mph - N/A   Clear
10:00 AM 39 °F - 32 °F 68% 30.34 in 19 mi SSW 11.2 mph - -   Mostly Cloudy
10:20 AM 41.0 °F 33.9 °F 32.0 °F 70% 30.30 in - SSW 12.7 mph - N/A   Clear
10:50 AM 41.0 °F 33.5 °F 32.0 °F 70% 30.30 in - SSW 13.8 mph - N/A   Clear
11:00 AM 42 °F - 33 °F 59% 30.32 in 22 mi SSW 13.4 mph - -   Mostly Cloudy
11:20 AM 41.0 °F 33.9 °F 32.0 °F 70% 30.33 in - SW 12.7 mph - N/A   Clear
11:50 AM 42.8 °F 35.8 °F 30.2 °F 61% 30.30 in - SSW 13.8 mph - N/A   Clear
12:00 PM 43 °F - 31 °F 52% 30.31 in 22 mi SSW 13.4 mph - -   Partly Cloudy
12:20 PM 42.8 °F 35.8 °F 30.2 °F 61% 30.30 in - SSW 13.8 mph - N/A   Clear
12:50 PM 42.8 °F 35.8 °F 32.0 °F 66% 30.30 in - SSW 13.8 mph - N/A   Clear
1:00 PM 43 °F - 32 °F 54% 30.30 in 25 mi SSW 13.4 mph - -   Mostly Cloudy
1:20 PM 42.8 °F 35.8 °F 32.0 °F 66% 30.27 in - SW 13.8 mph - N/A   Clear
1:50 PM 44.6 °F 37.8 °F 30.2 °F 57% 30.27 in - SW 15.0 mph - N/A   Clear
2:00 PM 44 °F - 31 °F 49% 30.29 in 25 mi SW 15.7 mph - - Rain Light Rain
2:20 PM 44.6 °F 38.4 °F 30.2 °F 57% 30.27 in - SW 12.7 mph - N/A   Clear
2:50 PM 44.6 °F 38.1 °F 30.2 °F 57% 30.27 in - SSW 13.8 mph - N/A   Clear
3:00 PM 45 °F - 31 °F 45% 30.29 in 28 mi SSW 13.4 mph - - Rain Light Rain
3:20 PM 44.6 °F 38.4 °F 30.2 °F 57% 30.27 in - SSW 12.7 mph - N/A   Clear
3:50 PM 42.8 °F 36.2 °F 30.2 °F 61% 30.27 in - SSW 12.7 mph - N/A   Clear
4:00 PM 44 °F - 31 °F 47% 30.28 in 22 mi SSW 13.4 mph - -   Partly Cloudy
4:20 PM 42.8 °F 35.8 °F 30.2 °F 61% 30.27 in - SSW 13.8 mph - N/A   Clear
4:50 PM 42.8 °F 35.8 °F 30.2 °F 61% 30.24 in - SSW 13.8 mph - N/A   Clear
5:00 PM 43 °F - 30 °F 49% 30.26 in 22 mi SSW 13.4 mph - -   Mostly Cloudy
5:20 PM 42.8 °F 36.6 °F 30.2 °F 61% 30.24 in - SSW 11.5 mph - N/A   Clear
5:50 PM 42.8 °F 36.6 °F 30.2 °F 61% 30.24 in - SSW 11.5 mph - N/A   Clear
6:00 PM 42 °F - 31 °F 53% 30.25 in 25 mi SSW 11.2 mph - -   Mostly Cloudy
6:20 PM 42.8 °F 35.8 °F 30.2 °F 61% 30.24 in - SSW 13.8 mph - N/A   Clear
6:50 PM 42.8 °F 36.2 °F 30.2 °F 61% 30.21 in - SSW 12.7 mph - N/A   Clear
7:00 PM 42 °F - 31 °F 53% 30.23 in 25 mi SSW 13.4 mph - -   Partly Cloudy
7:20 PM 42.8 °F 36.2 °F 30.2 °F 61% 30.21 in - SSW 12.7 mph - N/A   Clear
7:50 PM 42.8 °F 36.6 °F 28.4 °F 57% 30.21 in - SSW 11.5 mph - N/A   Clear
8:00 PM 43 °F - 29 °F 45% 30.22 in 19 mi SSW 11.2 mph - -   Mostly Cloudy
8:20 PM 42.8 °F 37.5 °F 28.4 °F 57% 30.21 in - SSW 9.2 mph - N/A   Clear
8:50 PM 41.0 °F 34.7 °F 28.4 °F 61% 30.18 in - SSW 10.4 mph - N/A   Clear
9:00 PM 42 °F - 29 °F 49% 30.20 in 19 mi SSW 8.9 mph - -   Overcast
9:20 PM 41.0 °F 34.7 °F 30.2 °F 65% 30.18 in - South 10.4 mph - N/A   Clear
9:50 PM 41.0 °F 34.7 °F 28.4 °F 61% 30.15 in - South 10.4 mph - N/A   Clear
10:00 PM 42 °F - 29 °F 49% 30.17 in 19 mi South 8.9 mph - -   Overcast
10:20 PM 41.0 °F 34.3 °F 28.4 °F 61% 30.15 in - South 11.5 mph - N/A   Clear
10:50 PM 41.0 °F 34.3 °F 28.4 °F 61% 30.15 in - SSW 11.5 mph - N/A   Clear
11:00 PM 41 °F - 29 °F 51% 30.15 in 19 mi SSW 11.2 mph - -   Mostly Cloudy
11:20 PM 41.0 °F 33.9 °F 30.2 °F 65% 30.12 in - South 12.7 mph - N/A   Clear
11:50 PM 41.0 °F 33.5 °F 32.0 °F 70% 30.12 in - South 13.8 mph - N/A   Clear